Погода в Ульсане

Южная Корея     35°31′39″N   129°20′28″E
темп.,
°C
ветер,
м/с
пор.,
м/с
влажн.,
%
обл.,
%
осадки,
мм/ч
давл.,
гПа
погр.,
м
6 декабря, пн
пн600:00+4зсз118072 0.0 102814
03:00+4зсз217862 0.0 102714
06:00+4зсз11793 0.0 102713
09:00+7зсз12690 0.0 102775
12:00+13юз13522 0.0 1026862
15:00+13зюз22504 0.0 10241224
18:00+8сз1171100 0.0 102620
21:00+7сз2171100 0.0 102620
7 декабря, вт
вт700:00+6сз2167100 0.0 102619
03:00+5сз2262100 0.0 102623
06:00+4сз22591 0.0 102629
09:00+7сз23510 0.0 102795
12:00+11с46523 0.0 1027868
15:00+11ссв35535 0.0 10261357
18:00+7с388345 0.0 1028302
21:00+7ссз368247 0.1 1029228
8 декабря, ср
ср800:00+5сз248432 0.0 1030158
03:00+5сз238518 0.0 103063
06:00+4сз22835 0.0 103139
09:00+7ссз23704 0.0 1032133
12:00+11ссв355818 0.0 10321156
15:00+11ссв35545 0.0 10311227
18:00+7ссз2378100 0.0 103387
21:00+6ссз2379100 0.0 103374
9 декабря, чт
чт900:00+6ссз2281100 0.0 103245
03:00+5ссз22859 0.0 103233
06:00+5ссз228633 0.0 103235
09:00+8с23768 0.0 1031115
12:00+12ссв2362100 0.0 1030868
15:00+12св2262100 0.0 1028863
18:00+9ссз1177100 0.0 102815
21:00+8сз218393 0.0 102922
10 декабря, пт
пт1000:00+6зсз218897 0.0 102817
03:00+6зсз118763 0.0 102815
06:00+5зсз21865 0.0 102816
09:00+8зсз12700 0.0 102877
12:00+14ссз13450 0.0 1027845
15:00+14с23463 0.0 10271193
18:00+9сз11685 0.0 102811
21:00+7ссз21755 0.0 103018